PST,Max TemperatureF,Mean TemperatureF,Min TemperatureF,Max Dew PointF,MeanDew PointF,Min DewpointF,Max Humidity, Mean Humidity, Min Humidity, Max Sea Level PressureIn, Mean Sea Level PressureIn, Min Sea Level PressureIn, Max VisibilityMiles, Mean VisibilityMiles, Min VisibilityMiles, Max Wind SpeedMPH, Mean Wind SpeedMPH, Max Gust SpeedMPH,PrecipitationIn, CloudCover, Events, WindDirDegrees
2013-1-1,51,44,37,39,37,34,93,81,58,30.28,30.25,30.23,20,11,10,14,2,,0.00,3,,75
2013-1-2,55,44,33,41,34,32,93,79,41,30.26,30.21,30.15,10,10,10,7,1,,0.00,0,,311
2013-1-3,53,44,35,39,35,32,87,80,51,30.28,30.22,30.18,20,12,10,5,1,,0.00,1,,1
2013-1-4,55,46,37,39,37,34,93,79,44,30.31,30.25,30.19,10,8,5,5,1,,0.00,1,,217
2013-1-5,53,46,39,48,42,36,94,87,77,30.28,30.19,30.09,10,10,4,17,1,,0.00,5,Rain,180
2013-1-6,50,46,41,48,44,39,100,91,71,30.21,30.14,30.07,10,8,2,14,4,,0.04,6,Rain,354
2013-1-7,64,52,39,50,42,37,100,92,52,30.27,30.20,30.17,10,10,8,5,0,,0.00,3,,350
2013-1-8,59,50,42,48,45,43,100,90,67,30.25,30.19,30.14,15,10,2,5,1,,0.00,2,,331
2013-1-9,53,48,44,50,43,37,100,86,66,30.17,30.11,30.03,10,7,2,15,3,24,0.00,5,Rain,282
2013-1-10,50,46,41,37,35,32,81,67,50,30.22,30.14,30.10,10,10,10,16,6,22,0.00,2,,297
2013-1-11,51,45,39,41,34,30,87,68,57,30.28,30.21,30.15,20,12,10,10,6,17,0.00,2,,300
2013-1-12,48,42,37,37,32,19,93,75,32,30.27,30.20,30.16,10,10,10,7,1,,0.00,1,,39
2013-1-13,48,40,32,32,28,16,87,71,27,30.29,30.23,30.19,20,11,10,6,1,,0.00,1,,288
2013-1-14,50,41,32,32,22,14,75,52,27,30.42,30.35,30.25,10,10,10,9,3,,0.00,0,,143
2013-1-15,53,43,33,37,30,25,81,68,35,30.50,30.44,30.41,10,10,10,7,1,,0.00,1,,336
2013-1-16,55,44,33,41,32,30,87,72,41,30.45,30.37,30.24,20,10,8,5,1,,0.00,0,,48
2013-1-17,59,48,37,41,34,32,81,70,42,30.28,30.23,30.16,15,10,8,5,1,,0.00,0,,153
2013-1-18,62,50,37,45,35,32,87,70,37,30.24,30.19,30.14,15,10,5,5,0,,0.00,0,,60
2013-1-19,62,50,37,45,36,32,81,71,34,30.27,30.21,30.17,10,9,5,4,0,,0.00,1,,30
2013-1-20,64,38,12,39,35,32,87,72,30,30.24,30.20,30.14,20,11,7,4,0,,0.00,0,,60
2013-1-21,60,48,37,46,35,32,81,70,39,30.19,30.14,30.10,20,9,5,7,1,,0.00,0,,92
2013-1-22,57,48,39,46,39,36,93,76,51,30.12,30.08,30.02,10,9,5,6,1,,0.00,2,,50
2013-1-23,53,50,48,50,46,41,100,85,71,30.10,30.04,29.97,10,8,3,10,1,,0.01,5,Rain,312
2013-1-24,57,54,50,52,50,48,100,94,77,30.20,30.13,30.08,10,5,2,6,2,,0.00,8,Rain,259
2013-1-25,64,58,51,54,52,50,100,91,68,30.20,30.16,30.06,15,6,2,7,2,,0.00,7,Rain,328
2013-1-26,57,52,48,50,40,39,88,67,54,30.11,30.07,30.03,10,10,10,18,10,24,0.00,3,,283
2013-1-27,55,50,44,41,39,32,76,70,41,30.19,30.14,30.10,20,11,10,14,8,17,0.00,1,,297
2013-1-28,55,50,44,43,40,37,81,72,54,30.31,30.24,30.19,20,11,10,16,7,,0.00,2,,300
2013-1-29,57,52,46,45,41,39,87,76,55,30.37,30.32,30.29,10,10,10,9,4,,0.00,1,,294
2013-1-30,64,52,41,48,41,39,93,76,40,30.36,30.30,30.27,10,10,10,7,1,,0.00,0,,87
2013-1-31,62,52,42,48,44,39,93,76,52,30.30,30.22,30.19,20,11,10,7,1,,0.00,0,,24